Location: Unspecified
(0.0000°N, 0.0000°E)
Time: 23:23:25
(UTC+00:00)

Transit 4A - All Passes

Search period start: 25 January 2021 00:00
Search period end: 04 February 2021 00:00
Orbit: 864 x 980 km, 66.8° (Epoch: 25 January)

Date Brightness Start Highest point End Pass type
(mag) Time Alt. Az. Time Alt. Az. Time Alt. Az.
25 Jan - 04:40:38 10° N 04:45:55 34° ENE 04:51:08 10° SE visible
25 Jan - 06:28:12 10° WNW 06:31:57 18° WSW 06:35:42 10° SSW daylight
25 Jan - 15:54:16 10° SE 15:57:14 14° ESE 16:00:13 10° E daylight
25 Jan - 17:37:15 10° SW 17:43:19 52° WNW 17:49:29 10° N daylight
26 Jan - 04:49:22 10° N 04:55:11 61° ENE 05:00:53 10° SSE visible
26 Jan - 16:01:36 10° SSE 16:06:31 24° ESE 16:11:28 10° ENE daylight
26 Jan - 17:47:11 10° SW 17:52:37 31° WNW 17:58:06 10° N daylight
27 Jan - 04:58:33 10° NNW 05:04:26 78° WSW 05:10:13 10° SSE visible
27 Jan - 16:09:57 10° S 16:15:47 40° ESE 16:21:42 10° NE daylight
27 Jan - 17:57:48 10° WSW 18:01:54 18° WNW 18:06:04 10° NNW daylight
28 Jan - 03:24:48 10° NE 03:27:34 13° ENE 03:30:19 10° E visible
28 Jan - 05:08:08 10° NW 05:13:40 44° WSW 05:19:09 10° S visible
28 Jan - 16:18:48 10° SSW 16:25:03 69° ESE 16:31:23 10° NNE daylight
29 Jan - 03:32:14 10° NNE 03:36:53 24° ENE 03:41:28 10° ESE visible
29 Jan - 05:18:13 10° NW 05:22:56 25° WSW 05:27:36 10° SSW visible
29 Jan - 16:28:03 10° SSW 16:34:19 72° WNW 16:40:41 10° NNE daylight
30 Jan - 03:40:39 10° N 03:46:10 42° ENE 03:51:36 10° SE visible
30 Jan - 05:29:16 10° W 05:32:13 14° WSW 05:35:08 10° SW visible
30 Jan - 14:53:36 10° SSE 14:57:30 17° ESE 15:01:25 10° ENE daylight
30 Jan - 16:37:41 10° SW 16:43:35 43° WNW 16:49:34 10° N daylight
31 Jan - 03:49:33 10° NNW 03:55:25 74° ENE 04:01:12 10° SSE visible
31 Jan - 15:01:27 10° SSE 15:06:47 29° ESE 15:12:10 10° NE daylight
31 Jan - 16:47:48 10° WSW 16:52:53 25° WNW 16:58:01 10° NNW daylight
01 Feb - 03:58:52 10° NNW 04:04:40 64° WSW 04:10:23 10° S visible
01 Feb - 15:10:01 10° S 15:16:03 49° ESE 15:22:09 10° NE daylight
01 Feb - 16:58:51 10° WSW 17:02:11 15° WNW 17:05:34 10° NW daylight
02 Feb - 02:24:12 10° NNE 02:27:50 17° ENE 02:31:25 10° ESE visible
02 Feb - 04:08:37 10° NW 04:13:54 36° WSW 04:19:10 10° S visible
02 Feb - 15:19:00 10° SSW 15:25:18 82° ESE 15:31:43 10° NNE daylight
03 Feb - 02:32:07 10° N 02:37:08 29° ENE 02:42:05 10° SE visible
03 Feb - 04:18:57 10° WNW 04:23:10 21° WSW 04:27:22 10° SSW visible
03 Feb - 13:46:33 10° SE 13:48:27 11° ESE 13:50:23 10° E daylight
03 Feb - 15:28:22 10° SSW 15:34:34 60° WNW 15:40:52 10° N daylight
